Overview Statistics Trail Chart Weather Telemetry Raw packets
 

This is the latest recevied weather packets stored in our database for station/object WA6OOO. If no packets are shown the sender has not sent any weather packets the latest 10 day(s).

<< 74 75 76 77 78 79 80 >>
Time Temp. Humidity Pressure Rain* Wind** Luminosity Snow
1788142043 20.56° C 82% 1014 hPa 0 mm - 13 W/m² -
1788141742 20.56° C 82% 1013.9 hPa 0 mm - 18 W/m² -
1788141437 20.56° C 82% 1014.1 hPa 0 mm - 22 W/m² -
1788141133 21.11° C 81% 1013.9 hPa 0 mm - 25 W/m² -
1788140828 21.11° C 80% 1013.9 hPa 0 mm - 28 W/m² -
1788140523 21.67° C 79% 1014 hPa 0 mm - 37 W/m² -
1788140219 21.67° C 78% 1014 hPa 0 mm - 44 W/m² -
1788139918 21.67° C 78% 1013.7 hPa 0 mm - 50 W/m² -
1788139613 22.22° C 77% 1013.9 hPa 0 mm - 57 W/m² -
1788139309 22.22° C 77% 1013.9 hPa 0 mm - 64 W/m² -
1788139007 22.22° C 78% 1014 hPa 0 mm - 72 W/m² -
1788138704 22.22° C 77% 1014.2 hPa 0 mm - 81 W/m² -
1788138399 22.78° C 77% 1014.1 hPa 0 mm - 89 W/m² -
1788138095 22.78° C 76% 1014.2 hPa 0 mm - 100 W/m² -
1788137794 23.33° C 74% 1014.1 hPa 0 mm - 111 W/m² -
1788137490 22.78° C 74% 1014.2 hPa 0 mm - 124 W/m² -
1788137186 23.33° C 74% 1014.1 hPa 0 mm - 132 W/m² -
1788136881 23.33° C 73% 1014.2 hPa 0 mm - 144 W/m² -
1788136577 23.33° C 74% 1014.1 hPa 0 mm - 156 W/m² -
1788136273 23.89° C 73% 1014.1 hPa 0 mm - 170 W/m² -
1788135971 23.89° C 73% 1014.1 hPa 0 mm - 185 W/m² -
1788135667 23.89° C 73% 1014.1 hPa 0 mm - 198 W/m² -
1788135362 23.89° C 73% 1014 hPa 0 mm - 212 W/m² -
1788135058 24.44° C 70% 1014.2 hPa 0 mm - 229 W/m² -
1788134755 24.44° C 70% 1013.9 hPa 0 mm - 239 W/m² -

* Rain latest hour (hover to see other rain measurements)
** Current wind speed in m/s (hover to see current wind gust speed)